This is the latest recevied weather packets stored in our database for station/object SP1BMW-13. If no packets are shown the sender has not sent any weather packets the latest 10 day(s).
| Time | Temp. | Humidity | Pressure | Rain* | Wind** | Luminosity | Snow |
|---|---|---|---|---|---|---|---|
| 1787934737 | 22.22° C | 71% | 1007 hPa | 0 mm | 0.45 m/s, 113° | 23 W/m² | - |
| 1787934677 | 22.22° C | 71% | 1006.9 hPa | 0 mm | 1.79 m/s, 29° | 19 W/m² | - |
| 1787934617 | 22.22° C | 71% | 1007.1 hPa | 0 mm | 0.45 m/s, 45° | 16 W/m² | - |
| 1787934558 | 22.22° C | 70% | 1007.3 hPa | 0 mm | 1.34 m/s, 75° | 15 W/m² | - |
| 1787934498 | 22.22° C | 70% | 1007.1 hPa | 0 mm | 0.89 m/s, 53° | 16 W/m² | - |
| 1787934438 | 22.22° C | 69% | 1007.1 hPa | 0 mm | 0.89 m/s, 19° | 16 W/m² | - |
| 1787934378 | 22.22° C | 69% | 1007.2 hPa | 0 mm | 0.45 m/s, 113° | 17 W/m² | - |
| 1787934317 | 22.22° C | 69% | 1007.2 hPa | 0 mm | 0.89 m/s, 95° | 19 W/m² | - |
| 1787934258 | 22.22° C | 69% | 1007.2 hPa | 0 mm | 0.89 m/s, 66° | 20 W/m² | - |
| 1787934198 | 22.22° C | 69% | 1006.9 hPa | 0 mm | 0.89 m/s, 135° | 21 W/m² | - |
| 1787934138 | 22.22° C | 68% | 1007.2 hPa | 0 mm | 0.89 m/s, 28° | 23 W/m² | - |
| 1787934078 | 22.22° C | 68% | 1007.2 hPa | 0 mm | 0.89 m/s, 40° | 25 W/m² | - |
| 1787934017 | 22.22° C | 68% | 1007 hPa | 0 mm | 1.79 m/s, 47° | 25 W/m² | - |
| 1787933958 | 22.22° C | 68% | 1007.2 hPa | 0 mm | 0.45 m/s, 89° | 24 W/m² | - |
| 1787933898 | 22.22° C | 68% | 1007.1 hPa | 0 mm | 1.79 m/s, 44° | 22 W/m² | - |
| 1787933838 | 22.78° C | 68% | 1007 hPa | 0 mm | 0 m/s | 22 W/m² | - |
| 1787933777 | 22.78° C | 68% | 1006.9 hPa | 0 mm | 0.45 m/s, 108° | 22 W/m² | - |
| 1787933717 | 22.78° C | 67% | 1007 hPa | 0 mm | 0.89 m/s, 56° | 23 W/m² | - |
| 1787933658 | 22.78° C | 67% | 1006.8 hPa | 0 mm | 0.89 m/s, 72° | 24 W/m² | - |
| 1787933597 | 22.78° C | 67% | 1007.1 hPa | 0 mm | 1.79 m/s, 145° | 25 W/m² | - |
| 1787933537 | 22.78° C | 67% | 1007.1 hPa | 0 mm | 1.79 m/s, 31° | 25 W/m² | - |
| 1787933477 | 22.78° C | 67% | 1007.5 hPa | 0 mm | 0.89 m/s, 22° | 26 W/m² | - |
| 1787933417 | 22.78° C | 66% | 1007.4 hPa | 0 mm | 1.34 m/s, 31° | 27 W/m² | - |
| 1787933357 | 22.78° C | 66% | 1007.5 hPa | 0 mm | 2.24 m/s, 37° | 29 W/m² | - |
| 1787933297 | 22.78° C | 66% | 1007.4 hPa | 0 mm | 1.34 m/s, 79° | 31 W/m² | - |
* Rain latest hour (hover to see other rain measurements)
** Current wind speed in m/s (hover to see current wind gust speed)